This demonstration page uses our WeatherBlox Daily Observations layout. Learn more.

36.19886, -115.1175

Hourly Observations for May 1, 2018

Temp ( °F °C ) Dew Point ( °F °C ) Humidity (%) Winds ( mph kmh ) Pressure ( in mb ) Visibility ( mi km ) Precip ( " mm )
12:53 am 00:53 Clear 65 18.3 32 0 29 29 SSW 12 19 29.68 1005 10 16.09344 0 0
1:53 am 01:53 Mostly Cloudy 65 18.3 32 0 29 29 SW 6 9 29.65 1004 10 16.09344 0 0
2:53 am 02:53 Cloudy 63 17.2 32 0 31 31 S 9 15 29.65 1004 10 16.09344 0 0
3:53 am 03:53 Cloudy 61 16.1 35 1.7 38 38 SSW 7 11 29.65 1004 10 16.09344 0.001 0.001
4:53 am 04:53 Cloudy 59 15 36 2.2 42 42 SSE 8 13 29.68 1005 10 16.09344 0 0
5:53 am 05:53 Cloudy 59 15 40 4.4 49 49 NNE 6 9 29.71 1006 10 16.09344 0.001 0.001
6:53 am 06:53 Cloudy with Light Rain 58 14.4 42 5.6 56 56 N 8 13 29.74 1007 10 16.09344 0.02 0.508
7:53 am 07:53 Cloudy 59 15 43 6.1 56 56 NNW 9 15 29.74 1007 10 16.09344 0.001 0.001
8:53 am 08:53 Mostly Cloudy 61 16.1 41 5 48 48 N 8 13 29.74 1007 10 16.09344 0 0
9:53 am 09:53 Mostly Cloudy 63 17.2 39 3.9 41 41 N 3 6 29.74 1007 10 16.09344 0 0
10:53 am 10:53 Cloudy with Light Rain 63 17.2 40 4.4 43 43 ENE 5 7 29.74 1007 10 16.09344 0.001 0.001
11:53 am 11:53 Cloudy 64 17.8 38 3.3 38 38 E 8 13 29.74 1007 10 16.09344 0.001 0.001
12:53 pm 12:53 Partly Cloudy 66 18.9 40 4.4 39 39 NNE 9 15 29.74 1007 10 16.09344 0 0
1:53 pm 13:53 Partly Cloudy 66 18.9 39 3.9 37 37 NNE 8 13 29.71 1006 10 16.09344 0.001 0.001
2:53 pm 14:53 Cloudy with Light Rain 60 15.6 44 6.7 56 56 NNE 12 19 29.71 1006 4 6.437376 0.06 1.524
3:36 pm 15:36 Mostly Sunny 57 13.9 45 7.2 64 64 NNW 16 26 29.68 1005 10 16.09344 0.001 0.001
3:53 pm 15:53 Mostly Sunny 57 13.9 45 7.2 64 64 N 17 28 29.71 1006 10 16.09344 0.001 0.001
4:53 pm 16:53 Cloudy 57 13.9 42 5.6 58 58 NNW 15 24 29.74 1007 10 16.09344 0 0
5:53 pm 17:53 Mostly Cloudy 56 13.3 44 6.7 65 65 NNW 14 22 29.74 1007 10 16.09344 0.01 0.254
6:53 pm 18:53 Cloudy with Light Rain 57 13.9 44 6.7 62 62 WSW 6 9 29.77 1008 10 16.09344 0.001 0.001
7:53 pm 19:53 Cloudy with Light Rain 54 12.2 48 8.9 80 80 S 12 19 29.83 1010 10 16.09344 0.01 0.254
8:53 pm 20:53 Cloudy 53 11.7 45 7.2 74 74 SSE 5 7 29.83 1010 10 16.09344 0.001 0.001
9:53 pm 21:53 Cloudy with Light Rain 52 11.1 46 7.8 80 80 N 3 6 29.83 1010 10 16.09344 0.001 0.001
10:53 pm 22:53 Mostly Cloudy 53 11.7 47 8.3 80 80 WNW 7 11 29.83 1010 10 16.09344 0.001 0.001
11:53 pm 23:53 Cloudy 52 11.1 47 8.3 83 83 SE 6 9 29.83 1010 10 16.09344 0 0

Powered by AerisWeather